Regional Weather Roundup
Issued by NWS

Home | Current Version | Previous Version | Text Only | Print | Product List | Glossary Off
Versions: 1 2 3 4 5 6 7 8 9 10 11 12 13 14 15 16 17 18 19 20 21 22 23 24 25 26 27 28 29 30 31 32 33 34 35 36 37 38 39 40 41 42 43 44 45 46 47 48 49 50

000
ASUS45 KCYS 250610
RWRWY

WYOMING REGIONAL WEATHER ROUNDUP
NATIONAL WEATHER SERVICE CHEYENNE WY
1100 PM MST MON NOV 24 2014

NOTE:  "FAIR" INDICATES FEW OR NO CLOUDS BELOW 12,000 FEET
WITH NO SIGNIFICANT WEATHER AND/OR OBSTRUCTIONS TO VISIBILITY.

WYZ001-250700-
YELLOWSTONE NATIONAL PARK

CITY           SKY/WX    TMP DP  RH WIND       PRES   REMARKS
LK YELLOWSTONE   N/A     20  15  81 VRB6      30.18F WCI  12
6HR MIN TEMP:  17; 6HR MAX TEMP:  20; 6HR PCP:  0.01;

W YELLOWSTONE  NOT AVBL

$$
WYZ002>013-054>058-071-098>099-250700-
NORTHERN WYOMING

CITY           SKY/WX    TMP DP  RH WIND       PRES   REMARKS
JACKSON        CLOUDY    25  19  80 S9        30.25F WCI  15
CODY           MOCLDY    36  16  44 W23G37    30.02F WCI  24
GREYBULL       CLOUDY    23  18  81 SE8       30.09F WCI  14
6HR MIN TEMP:  20; 6HR MAX TEMP:  32;

WORLAND        PTCLDY    18  12  77 N3        30.09F
6HR MIN TEMP:  17; 6HR MAX TEMP:  30;

SHERIDAN       MOCLDY    25  14  63 S5        30.01F WCI  19
6HR MIN TEMP:  24; 6HR MAX TEMP:  30;

BUFFALO        PTCLDY    28  11  48 S8        30.02F WCI  20
6HR MIN TEMP:  22; 6HR MAX TEMP:  32;

GILLETTE       PTCLDY    28  19  69 SW13      30.03F WCI  17
6HR MIN TEMP:  24; 6HR MAX TEMP:  29;

HULETT           N/A     28  23  80 MISG        N/A
NEWCASTLE      FAIR      23  21  93 NW7       30.09F WCI  15

$$
WYZ014>020-022>026-101>103-250700-
CENTRAL WYOMING

CITY           SKY/WX    TMP DP  RH WIND       PRES   REMARKS
BIG PINEY      PTCLDY    18   6  59 CALM      30.26F
6HR MIN TEMP:  16; 6HR MAX TEMP:  38;

PINEDALE       PTCLDY    14   9  79 NW3       30.25F
DUBOIS         FAIR      21  10  63 NW18G31   30.10F WCI   6
LANDER         PTCLDY    20   6  55 E3        30.10F
6HR MIN TEMP:  20; 6HR MAX TEMP:  30;

RIVERTON       PTCLDY    29  12  49 W22G31    30.09F WCI  15
6HR MIN TEMP:  28; 6HR MAX TEMP:  30;

CASPER         CLEAR     22  13  68 SW9       30.11F WCI  12
6HR MIN TEMP:  18; 6HR MAX TEMP:  29;

DOUGLAS        PTCLDY   N/A N/A N/A N3        30.12F

$$
WYZ021-027>030-104>119-250700-
SOUTHERN WYOMING

CITY           SKY/WX    TMP DP  RH WIND       PRES   REMARKS
EVANSTON       PTCLDY    17  13  84 SW13      30.34F WCI   4
6HR MIN TEMP:  14; 6HR MAX TEMP:  22;

FORT BRIDGER   FAIR      23  13  67 SW18G24   30.35F WCI   8
ROCK SPRINGS   MOCLDY    20  13  74 W24       30.27F WCI   3
6HR MIN TEMP:  20; 6HR MAX TEMP:  25;

DIXON          FAIR       4   0  82 CALM      30.34R
RAWLINS        PTCLDY    18  10  71 W16       30.20S WCI   3
6HR MIN TEMP:  12; 6HR MAX TEMP:  20;

SARATOGA       FAIR      19  10  68 W17G23    30.23S WCI   4
LARAMIE        CLEAR     11   6  81 SW10      30.11S WCI  -3
6HR MIN TEMP:  10; 6HR MAX TEMP:  21;

CHEYENNE       CLEAR     14   7  73 W10       30.12F WCI   1
6HR MIN TEMP:  14; 6HR MAX TEMP:  27; 6HR PCP: TRACE;

TORRINGTON     CLEAR     23  18  81 W5        30.15S WCI  17
6HR MIN TEMP:  22; 6HR MAX TEMP:  34;

PINE BLUFFS    FAIR      14  12  92 W7        30.16S WCI   4

$$


USA.gov is the U.S. government's official web portal to all federal, state and local government web resources and services.